Flag Weather past 2 weeks in Amritsar, Punjab, India

Now
73 °F

Haze.


Feels Like: 77 °F
Forecast: 52 / 79 °F
Wind: No wind

Location: Amritsar Airport

Current Time: Nov 26, 2014 at 5:23:16 PM

Latest Report: Nov 26, 2014 at 4:30 PM


Visibility: 2 mi

Pressure: 29.80 "Hg

Humidity: 38%

Dew point: 46 °F

Location of AmritsarLocation

Historic Weather in Amritsar — Graph

°F

Amritsar temperature yesterday

Maximum temperature yesterday: 75 °F (at 1:30 PM)
Minimum temperature yesterday: 45 °F (at 6:30 AM)
Average temperature yesterday: 60 °F

Past Weeks' High & Low Weather Summary

 TemperatureHumidityPressure
High81 °F (Nov 12, 2:00 PM)100% (Nov 12, 2:00 AM)30.12 "Hg (Nov 12, 2:00 AM)
Low45 °F (Nov 25, 6:30 AM)23% (Nov 13, 2:30 PM)29.83 "Hg (Nov 26, 2:30 PM)
Average61 °F69%30.00 "Hg
* Reported Nov 11 3:30 PM — Nov 26 4:00 PM, Amritsar, Weather by CustomWeather, © 2014

Note: Actual official high and low records may vary slightly from our data, if they occured in-between our weather recording intervals... More about our weather records

Advertising

Amritsar weather history for previous 24 hours

 ConditionsComfort  
Time TempWeatherWind HumidityBarometerVisibility
4:00 PM
Nov 26
75 °FHaze.7 mph39%29.83 "Hg1 mi
3:30 PM75 °FHaze.7 mph39%29.83 "Hg2 mi
3:00 PM75 °FHaze.7 mph36%29.83 "Hg2 mi
2:30 PM75 °FHaze.8 mph39%29.83 "Hg2 mi
1:00 PM73 °FHaze.7 mph36%29.89 "Hg2 mi
12:30 PM72 °FHaze.5 mph38%29.89 "Hg2 mi
12:00 PM70 °FHaze.6 mph40%29.92 "Hg2 mi
11:30 AM70 °FHaze.3 mph38%29.92 "Hg2 mi
10:30 AM66 °FHaze.No wind52%29.95 "Hg1 mi
9:00 AM54 °FFog.No wind94%29.92 "Hg1 mi
8:30 AM50 °FFog.No wind100%29.92 "Hg1 mi
8:00 AM46 °FFog.No wind100%29.92 "Hg0 mi
7:30 AM45 °FFog.No wind100%29.92 "Hg0 mi
7:00 AM46 °FFog.No wind100%29.89 "Hg0 mi
6:30 AM46 °FFog.No wind93%29.89 "Hg1 mi
6:00 AM46 °FFog.No wind93%29.89 "Hg1 mi
5:30 AM48 °FFog.No wind100%29.89 "Hg1 mi
5:00 AM46 °FFog.No wind100%29.89 "Hg1 mi
4:30 AM48 °FFog.No wind94%29.89 "Hg1 mi
4:00 AM48 °FFog.No wind94%29.89 "Hg1 mi
3:30 AM48 °FFog.No wind87%29.89 "Hg1 mi
3:00 AM48 °FFog.No wind94%29.92 "Hg1 mi
2:30 AM50 °FFog.No wind94%29.92 "Hg1 mi
2:00 AM50 °FFog.No wind88%29.95 "Hg1 mi
1:30 AM50 °FFog.No wind88%29.95 "Hg1 mi
1:00 AM50 °FFog.No wind88%29.95 "Hg1 mi
12:30 AM52 °FFog.No wind88%29.95 "Hg1 mi
12:00 AM52 °FFog.No wind82%29.98 "Hg1 mi
11:30 PM
Nov 25
55 °FFog.No wind77%29.98 "Hg1 mi
11:00 PM54 °FFog.No wind82%29.98 "Hg1 mi
10:30 PM54 °FFog.No wind82%29.98 "Hg1 mi
10:00 PM55 °FFog.No wind77%29.98 "Hg1 mi
9:30 PM55 °FFog.No wind77%29.98 "Hg1 mi
9:00 PM57 °FHaze.No wind72%29.98 "Hg1 mi
8:30 PM59 °FHaze.No wind68%29.98 "Hg1 mi
8:00 PM57 °FHaze.5 mph72%29.98 "Hg1 mi
7:30 PM57 °FHaze.No wind72%29.95 "Hg1 mi
7:00 PM61 °FHaze.No wind59%29.95 "Hg1 mi
6:30 PM63 °FHaze.No wind59%29.95 "Hg1 mi
5:30 PM68 °FHaze.No wind46%29.95 "Hg2 mi
5:00 PM72 °FHaze.No wind38%29.95 "Hg2 mi
Weather by CustomWeather, © 2014

See weather overviewHow to use our weather pages